sat.trackr.live / text

‹ back to catalog

STARLINK-36348

NORAD 67851 · 2026-034B

PAYLOAD ACTIVE UNKNOWN

§ Identity

Operator
Country
US
Launch date
2026-02-20
Launch site
AFETR
Launch vehicle
Mass (kg)
RCS (m²)

Purposes: comms

External: N2YO · Heavens-Above · Gunter

§ Orbital elements

Epoch: 2026-09-19T19:35:02.654016Z

Period
93.85 min
Inclination
53.1595°
Eccentricity
0.0001141
Mean motion
15.34418355 rev/d
Perigee alt
461.9 km
Apogee alt
463.4 km
Semi-major
6,840.8 km
B*
6.3889e-4
RAAN
20.7054°
Arg perigee
111.6186°
Mean anomaly
248.4938°
Rev number
3,378

§ Raw data

STARLINK-363481 67851U 26034B   26262.81600294  .00021284  00000+0  63889-3 0  99932 67851  53.1595  20.7054 0001141 111.6186 248.4938 15.34418355 33784

JSON: /api/v1/satellites/67851 · /tle

For live sub-satellite position, see the globe view (requires WebGL).

§ Visibility from observer

Set your observer location to see the next 7 days of passes ≥ 10°. The values pass through the URL so the page stays shareable.

No JS? Fill the form by hand. The geolocation button needs JavaScript.